Location: Izdebno
(52.6670°N, 16.2170°E)
Time: 20:37:46
(UTC+02:00)

SR - Pass Details

Date: 27 February 2024
Orbit: 577 x 862 km, 66.7° (Epoch: 20 April)

Event Time Altitude Azimuth Distance (km) Brightness Sun altitude
Rises 22:53:45 0° 319° (NW) 3,259 ? -43.1°
Reaches altitude 10° 22:56:16 10° 318° (NW) 2,282 ? -43.3°
Enters shadow 22:56:28 11° 318° (NW) 2,208 ? -43.3°
